Shelby, NC

9:21 PM EDT on April 30, 2017 (GMT -0400)
Shelby Municipal

Weather History for KEHO - April, 2014

Change the Weather History Date:

Saturday, April 19, 2014

  Actual Average (KHKY) Record (KHKY)
Temperature  
Mean Temperature 49 °F -  
Max Temperature 52 °F 71 °F 88 °F (1976)
Min Temperature 46 °F 47 °F 28 °F (1983)
Degree Days  
Heating Degree Days 16    
Moisture  
Dew Point 47 °F    
Average Humidity 94    
Maximum Humidity 98    
Minimum Humidity 87    
Precipitation  
Precipitation 0.49 in - - ()
Sea Level Pressure  
Sea Level Pressure 30.17 in    
Wind  
Wind Speed 10 mph (NNE)    
Max Wind Speed 15 mph    
Max Gust Speed 21 mph    
Visibility 6 miles    
Events Rain    
Averages and records for this station are not official NWS values.
T = Trace of Precipitation, MM = Missing Value Source: NWS Daily Summary

Daily Weather History Graph

Daily Weather History Graph

Search for Another Location

Airport or City:

Trip Planner

Search our weather history database for the weather conditions in past years. The results will help you decide how hot, cold, wet, or windy it might be!

Date:

Astronomy

Apr. 19, 2014 Rise Set
Actual Time 6:49 AM EDT 8:02 PM EDT
Civil Twilight 6:22 AM EDT 8:28 PM EDT
Nautical Twilight 5:51 AM EDT 9:00 PM EDT
Astronomical Twilight 5:18 AM EDT 9:33 PM EDT
Moon No Moon Rise 10:11 AM EDT (4/19)
Length of Visible Light 14h 06m
Length of Day
13h 13m
Waning Gibbous, 79% of the Moon is Illuminated
Apr 19
Waning Gibbous
Apr 22
Last Quarter
Apr 29
New
May 6
First Quarter
May 14
Full

Hourly Weather History & Observations

Time (EDT) Temp. Windchill Dew Point Humidity Pressure Visibility Wind Dir Wind Speed Gust Speed Precip Events Conditions
12:00 AM 46.2 °F 40.8 °F 44.6 °F 94% 30.19 in 7.0 mi NNE 11.5 mph - 0.02 in Rain Light Rain
12:20 AM 46.4 °F 42.4 °F 44.8 °F 94% 30.19 in 7.0 mi NNE 8.1 mph - N/A Rain Light Rain
12:35 AM 46.4 °F 41.9 °F 45.0 °F 95% 30.19 in 7.0 mi NNE 9.2 mph - N/A Rain Light Rain
12:55 AM 46.4 °F 41.5 °F 45.1 °F 95% 30.18 in 7.0 mi North 10.4 mph - N/A Rain Rain
1:15 AM 46.6 °F - 45.5 °F 96% 30.17 in 7.0 mi NNE 9.2 mph - N/A Rain Rain
1:35 AM 46.8 °F - 45.5 °F 95% 30.17 in 7.0 mi NNE 11.5 mph - 0.01 in Rain Light Rain
1:55 AM 46.8 °F - 45.5 °F 95% 30.16 in 7.0 mi North 10.4 mph 16.1 mph 0.01 in Rain Light Rain
2:35 AM 46.4 °F 40.7 °F 44.6 °F 93% 30.14 in 7.0 mi NNE 12.7 mph 18.4 mph 0.02 in Rain Rain
2:55 AM 46.0 °F 41.0 °F 44.2 °F 93% 30.14 in 7.0 mi NNE 10.4 mph 19.6 mph 0.03 in Rain Rain
3:15 AM 46.0 °F 41.0 °F 45.0 °F 96% 30.14 in 7.0 mi NNE 10.4 mph 17.3 mph 0.01 in Rain Rain
3:35 AM 46.0 °F 40.6 °F 44.8 °F 95% 30.12 in 7.0 mi NNE 11.5 mph - 0.01 in Rain Light Rain
3:55 AM 46.0 °F 40.6 °F 44.8 °F 95% 30.11 in 10.0 mi NNE 11.5 mph - 0.02 in Rain Light Rain
4:15 AM 46.4 °F 41.5 °F 44.8 °F 94% 30.11 in 10.0 mi NNE 10.4 mph - N/A Rain Light Rain
4:35 AM 46.4 °F 41.5 °F 45.0 °F 95% 30.11 in 7.0 mi NNE 10.4 mph - N/A Rain Light Rain
5:15 AM 46.4 °F 41.9 °F 45.5 °F 97% 30.12 in 7.0 mi NE 9.2 mph - N/A   Drizzle
5:35 AM 46.4 °F 40.7 °F 45.1 °F 95% 30.12 in 5.0 mi NE 12.7 mph - 0.01 in Rain Light Rain
5:55 AM 46.4 °F 42.4 °F 45.1 °F 95% 30.12 in 7.0 mi NNE 8.1 mph - 0.02 in Rain Rain
6:15 AM 46.0 °F 41.4 °F 45.0 °F 96% 30.12 in 7.0 mi NNE 9.2 mph 17.3 mph 0.01 in   Drizzle
6:35 AM 46.0 °F 41.0 °F 45.0 °F 96% 30.12 in 7.0 mi NNE 10.4 mph - 0.01 in Rain Rain
6:58 AM 46.4 °F 42.4 °F 44.6 °F 93% 30.13 in 5.0 mi North 8.1 mph - 0.01 in   Drizzle
7:20 AM 46.0 °F 41.9 °F 45.5 °F 98% 30.14 in 5.0 mi NNE 8.1 mph - 0.01 in   Drizzle
7:30 AM 46.0 °F 41.9 °F 45.5 °F 98% 30.14 in 4.0 mi North 8.1 mph - 0.01 in   Drizzle
7:50 AM 46.2 °F 41.7 °F 45.5 °F 97% 30.15 in 4.0 mi North 9.2 mph - 0.02 in   Drizzle
8:10 AM 46.4 °F 42.4 °F 45.5 °F 97% 30.15 in 5.0 mi North 8.1 mph - N/A   Drizzle
8:35 AM 46.4 °F 42.9 °F 45.7 °F 97% 30.16 in 5.0 mi North 6.9 mph - N/A   Light Drizzle
8:55 AM 46.6 °F - 45.9 °F 97% 30.16 in 4.0 mi North 12.7 mph 17.3 mph N/A   Light Drizzle
9:15 AM 46.8 °F - 46.0 °F 97% 30.16 in 4.0 mi North 9.2 mph - N/A Rain Light Rain
9:35 AM 46.9 °F - 46.0 °F 97% 30.17 in 5.0 mi North 11.5 mph 19.6 mph N/A Rain Light Rain
9:55 AM 47.1 °F - 46.0 °F 96% 30.17 in 5.0 mi North 9.2 mph 16.1 mph N/A   Light Drizzle
10:15 AM 47.7 °F - 46.6 °F 96% 30.17 in 3.0 mi North 10.4 mph 18.4 mph N/A   Overcast
10:35 AM 47.7 °F - 46.6 °F 96% 30.16 in 4.0 mi North 10.4 mph 16.1 mph N/A Rain Light Rain
10:55 AM 48.0 °F - 46.6 °F 95% 30.17 in 5.0 mi NNE 13.8 mph 20.7 mph N/A   Overcast
11:15 AM 47.8 °F - 46.4 °F 95% 30.17 in 4.0 mi North 11.5 mph 17.3 mph N/A Rain Light Rain
11:35 AM 47.8 °F - 46.4 °F 95% 30.17 in 4.0 mi North 15.0 mph 19.6 mph N/A   Overcast
11:55 AM 48.2 °F - 46.4 °F 93% 30.17 in 5.0 mi NNE 13.8 mph 20.7 mph N/A   Overcast
12:15 PM 48.4 °F - 46.6 °F 93% 30.17 in 5.0 mi North 10.4 mph - N/A   Overcast
12:35 PM 49.6 °F - 47.8 °F 94% 30.16 in 5.0 mi NNE 9.2 mph 17.3 mph N/A   Overcast
12:55 PM 49.6 °F - 47.8 °F 94% 30.17 in 7.0 mi NNE 9.2 mph 16.1 mph N/A Rain Light Rain
1:15 PM 50.5 °F - 48.7 °F 94% 30.17 in 5.0 mi North 8.1 mph 17.3 mph N/A Rain Light Rain
1:40 PM 51.3 °F - 49.6 °F 94% 30.17 in 4.0 mi NNE 15.0 mph - N/A Rain Light Rain
1:55 PM 51.3 °F - 49.5 °F 94% 30.17 in 4.0 mi NNE 11.5 mph - N/A Rain Light Rain
2:20 PM 51.3 °F - 49.3 °F 93% 30.16 in 7.0 mi North 13.8 mph 19.6 mph N/A Rain Light Rain
2:35 PM 51.4 °F - 49.5 °F 93% 30.16 in 7.0 mi NNE 12.7 mph 20.7 mph N/A Rain Light Rain
2:55 PM 51.8 °F - 49.6 °F 92% 30.17 in 4.0 mi NNE 10.4 mph 17.3 mph N/A Rain Light Rain
3:15 PM 52.2 °F - 50.4 °F 94% 30.16 in 4.0 mi North 9.2 mph 16.1 mph N/A   Light Drizzle
3:35 PM 51.4 °F - 49.5 °F 93% 30.17 in 4.0 mi NNE 8.1 mph 19.6 mph N/A Rain Light Rain
3:55 PM 51.3 °F - 49.6 °F 94% 30.17 in 3.0 mi North 8.1 mph 16.1 mph 0.01 in Rain Rain
4:18 PM 51.8 °F - 48.2 °F 88% 30.17 in 3.0 mi North 10.4 mph - 0.01 in Rain Rain
4:36 PM 50.0 °F - 46.4 °F 87% 30.17 in 4.0 mi North 8.1 mph - 0.01 in Rain Rain
4:40 PM 50.0 °F - 47.3 °F 90% 30.17 in 4.0 mi North 10.4 mph - 0.01 in Rain Rain
4:55 PM 50.0 °F - 47.7 °F 92% 30.17 in 4.0 mi North 10.4 mph 17.3 mph 0.02 in Rain Light Rain
5:36 PM 50.0 °F - 48.2 °F 94% 30.19 in 5.0 mi North 9.2 mph - 0.03 in Rain Rain
5:58 PM 50.0 °F - 48.2 °F 94% 30.19 in 5.0 mi North 9.2 mph - 0.06 in Rain Rain
6:15 PM 50.0 °F - 48.4 °F 94% 30.19 in 5.0 mi North 8.1 mph - 0.04 in Rain Heavy Rain
6:18 PM 50.0 °F - 48.2 °F 94% 30.19 in 5.0 mi North 9.2 mph - 0.05 in Rain Rain
6:36 PM 50.0 °F - 48.2 °F 94% 30.18 in 7.0 mi North 12.7 mph 17.3 mph 0.09 in Rain Rain
6:56 PM 50.0 °F - 48.2 °F 94% 30.19 in 5.0 mi North 10.4 mph - 0.16 in Rain Heavy Rain
7:18 PM 50.0 °F - 46.4 °F 87% 30.19 in 7.0 mi NNE 8.1 mph - 0.04 in Rain Rain
7:30 PM 50.2 °F - 46.9 °F 89% 30.20 in 10.0 mi North 6.9 mph - 0.05 in Rain Light Rain
7:56 PM 50.0 °F - 46.4 °F 87% 30.21 in 7.0 mi North 9.2 mph - 0.07 in Rain Rain
8:15 PM 50.0 °F - 47.3 °F 90% 30.21 in 10.0 mi North 5.8 mph - 0.01 in Rain Light Rain
8:16 PM 50.0 °F - 46.4 °F 87% 30.20 in 10.0 mi North 6.9 mph - 0.01 in Rain Light Rain
8:30 PM 50.2 °F - 47.7 °F 91% 30.21 in 10.0 mi NNE 4.6 mph - 0.01 in Rain Light Rain
8:56 PM 50.0 °F - 48.2 °F 94% 30.22 in 7.0 mi North 4.6 mph - 0.03 in Rain Light Rain
9:00 PM 49.6 °F - 48.2 °F 95% 30.22 in 7.0 mi North 4.6 mph - 0.03 in Rain Light Rain
9:36 PM 50.0 °F - 48.2 °F 94% 30.22 in 10.0 mi NNE 5.8 mph - N/A Rain Light Rain
9:40 PM 50.0 °F - 48.6 °F 95% 30.22 in 10.0 mi NE 5.8 mph - N/A Rain Light Rain
10:16 PM 50.0 °F - 48.2 °F 94% 30.22 in 10.0 mi North 5.8 mph - N/A Rain Light Rain
10:56 PM 50.0 °F - 48.2 °F 94% 30.23 in 10.0 mi NNE 4.6 mph - N/A   Overcast
11:16 PM 50.0 °F - 48.2 °F 94% 30.23 in 10.0 mi NNE 5.8 mph - N/A   Overcast
11:40 PM 51.1 °F - 48.4 °F 90% 30.23 in 10.0 mi North 6.9 mph - N/A Rain Light Rain
11:55 PM 51.1 °F - 48.2 °F 90% 30.22 in 10.0 mi NNE 5.8 mph - N/A   Mostly Cloudy